Flag for Canada Weather past 2 weeks in Clarington, Ontario, Canada

Now
7 °F

Overcast.


Feels Like: -6 °F
Forecast: -1 / 11 °F
Wind: 8 mph from Northeast

Location: Peterborough Airport

Current Time: Feb 1, 2015 at 8:09:40 PM

Latest Report: Feb 1, 2015 at 7:00 PM


Visibility: 9 mi

Pressure: 30.16 "Hg

Humidity: 47%

Dew point: -9 °F

Location of ClaringtonLocation

Historic Weather in Clarington — Graph

°F

Clarington temperature yesterday

Maximum temperature yesterday: 25 °F (at 11:00 PM)
Minimum temperature yesterday: -18 °F (at 6:00 AM)
Average temperature yesterday: 5 °F

Past Weeks' High & Low Weather Summary

 TemperatureHumidityPressure
High39 °F (Jan 18, 4:00 AM)100% (Jan 18, 4:00 PM)30.38 "Hg (Jan 18, 4:00 PM)
Low-18 °F (Jan 31, 6:00 AM)23% (Jan 27, 4:00 PM)29.44 "Hg (Jan 24, 4:00 PM)
Average16 °F76%30.03 "Hg
* Reported Jan 17 6:00 PM — Feb 1 6:00 PM, Clarington, Weather by CustomWeather, © 2014

Note: Actual official high and low records may vary slightly from our data, if they occured in-between our weather recording intervals... More about our weather records

Advertising

Clarington weather history for previous 24 hours

 ConditionsComfort  
Time TempWeatherWind HumidityBarometerVisibility
6:00 PM
Feb 1
9 °FOvercast.9 mph47%30.19 "Hg9 mi
5:00 PM9 °FOvercast.10 mph47%30.20 "Hg9 mi
4:00 PM9 °FOvercast.7 mph47%30.23 "Hg9 mi
3:00 PM9 °FOvercast.8 mph47%30.25 "Hg9 mi
2:00 PM9 °FPartly sunny.6 mph47%30.26 "Hg9 mi
1:00 PM7 °FPartly sunny.6 mph51%30.28 "Hg9 mi
12:00 PM7 °FSunny.8 mph51%30.30 "Hg9 mi
11:00 AM5 °FPassing clouds.9 mph55%30.32 "Hg9 mi
10:00 AM3 °FSunny.14 mph66%30.32 "Hg9 mi
9:00 AM5 °FScattered clouds.10 mph66%30.33 "Hg9 mi
8:01 AM7 °FOvercast.10 mph72%30.32 "Hg9 mi
7:00 AM9 °FOvercast.10 mph78%30.30 "Hg9 mi
6:58 AM9 °FOvercast.12 mph78%30.30 "Hg9 mi
6:00 AM16 °FLight snow. Overcast.9 mph79%30.26 "Hg9 mi
5:00 AM18 °FLight snow. Mostly cloudy.9 mph79%30.22 "Hg9 mi
4:00 AM19 °FLight snow. Mostly cloudy.7 mph86%30.20 "Hg9 mi
3:00 AM23 °FLight snow. Mostly cloudy.9 mph86%30.17 "Hg4 mi
2:01 AM23 °FLight snow. Mostly cloudy.7 mph93%30.16 "Hg9 mi
1:00 AM25 °FLight snow. Mostly cloudy.3 mph93%30.14 "Hg3 mi
12:46 AM25 °FLight snow. Mostly cloudy.7 mph93%30.14 "Hg3 mi
12:00 AM25 °FLight snow. Overcast.8 mph86%30.13 "Hg8 mi
11:00 PM
Jan 31
25 °FLight snow. Overcast.10 mph86%30.12 "Hg9 mi
10:00 PM18 °FLight snow. Overcast.3 mph93%30.15 "Hg9 mi
9:00 PM16 °FLight snow. Mostly cloudy.6 mph100%30.16 "Hg9 mi
8:56 PM16 °FLight snow. Mostly cloudy.6 mph93%30.16 "Hg9 mi
8:00 PM16 °FLight snow. Mostly cloudy.6 mph93%30.18 "Hg9 mi
Weather by CustomWeather, © 2014

See weather overviewHow to use our weather pages